TimeCST,TemperatureF,Dew PointF,Humidity,Sea Level PressureIn,VisibilityMPH,Wind Direction,Wind SpeedMPH,Gust SpeedMPH,PrecipitationIn,Events,Conditions,WindDirDegrees,DateUTC
12:56 AM,30.0,16.0,56,30.25,10.0,NW,3.5,-,N/A,,Clear,310,2014-01-18 06:56:00
1:56 AM,27.0,19.9,75,30.26,10.0,Calm,Calm,-,N/A,,Clear,0,2014-01-18 07:56:00
2:56 AM,27.0,21.0,78,30.27,10.0,NNW,5.8,-,N/A,,Clear,330,2014-01-18 08:56:00
3:56 AM,28.9,19.0,67,30.27,10.0,Calm,Calm,-,N/A,,Clear,0,2014-01-18 09:56:00
4:56 AM,27.0,18.0,69,30.28,10.0,NNW,4.6,-,N/A,,Clear,340,2014-01-18 10:56:00
5:56 AM,25.0,17.1,72,30.30,10.0,WNW,5.8,-,N/A,,Clear,290,2014-01-18 11:56:00
6:56 AM,24.1,19.0,81,30.30,10.0,Calm,Calm,-,N/A,,Clear,0,2014-01-18 12:56:00
7:56 AM,32.0,23.0,69,30.30,10.0,Calm,Calm,-,N/A,,Clear,0,2014-01-18 13:56:00
8:56 AM,39.9,18.0,41,30.32,10.0,SSE,3.5,-,N/A,,Clear,150,2014-01-18 14:56:00
9:56 AM,45.0,9.0,23,30.33,10.0,SE,3.5,-,N/A,,Clear,140,2014-01-18 15:56:00
10:56 AM,48.0,10.0,22,30.30,10.0,Calm,Calm,-,N/A,,Clear,0,2014-01-18 16:56:00
11:56 AM,50.0,10.9,21,30.27,10.0,SW,9.2,-,N/A,,Clear,220,2014-01-18 17:56:00
12:56 PM,53.1,12.9,20,30.22,10.0,SW,9.2,-,N/A,,Clear,220,2014-01-18 18:56:00
1:56 PM,54.0,12.0,19,30.19,10.0,SW,8.1,-,N/A,,Clear,220,2014-01-18 19:56:00
2:56 PM,53.1,21.0,29,30.19,10.0,SSW,15.0,-,N/A,,Clear,200,2014-01-18 20:56:00
3:56 PM,50.0,23.0,35,30.19,10.0,SSW,11.5,-,N/A,,Clear,210,2014-01-18 21:56:00
4:56 PM,48.0,27.0,44,30.17,10.0,South,8.1,-,N/A,,Clear,190,2014-01-18 22:56:00
5:56 PM,43.0,26.1,51,30.17,10.0,SSW,8.1,-,N/A,,Clear,210,2014-01-18 23:56:00
6:56 PM,42.1,28.0,58,30.15,10.0,SSW,8.1,-,N/A,,Clear,200,2014-01-19 00:56:00
7:56 PM,43.0,30.0,60,30.14,10.0,SW,8.1,-,N/A,,Clear,220,2014-01-19 01:56:00
8:56 PM,43.0,30.9,62,30.14,10.0,SSW,8.1,-,N/A,,Clear,210,2014-01-19 02:56:00
9:56 PM,43.0,32.0,65,30.14,10.0,SW,8.1,-,N/A,,Clear,220,2014-01-19 03:56:00
10:56 PM,41.0,33.1,73,30.12,10.0,SW,6.9,-,N/A,,Clear,220,2014-01-19 04:56:00
11:56 PM,42.1,35.1,76,30.13,10.0,WSW,5.8,-,N/A,,Clear,240,2014-01-19 05:56:00